[[[{"header":{"parameterUnit":"kt","parameterCategory":2,"dx":1,"dy":1,"la1":30.253999710083008,"la2":30.299108505249023,"lo1":-89.0895004272461,"lo2":-89.04439544677734,"nx":28,"ny":28,"refTime":"2022-09-22T21:00:00:Z","depth":0,"parameterNumber":1,"parameterNumberName":"U-component_of_WINDS"},"data":[-0.1882,-0.181,-0.1728,-0.1608,-0.1514,-0.1419,-0.1358,-0.1271,-0.1181,-0.1057,-0.0971,-0.0879,-0.0756,-0.0633,-0.0535,-0.0496,-0.0463,-0.0499,-0.0448,-0.0361,-0.0343,-0.0327,-0.034,-0.0492,-0.0492,-0.0552,-0.0553,-0.0553,-0.1832,-0.1739,-0.165,-0.1509,-0.1433,-0.1349,-0.123,-0.1172,-0.1088,-0.0975,-0.0884,-0.0767,-0.0664,-0.0523,-0.041,-0.0375,-0.033,-0.0351,-0.0355,-0.0337,-0.0239,-0.0254,-0.039,-0.039,-0.039,-0.039,-0.039,-0.039,-0.1719,-0.1679,-0.1545,-0.1447,-0.1352,-0.1258,-0.1205,-0.1093,-0.1005,-0.0875,-0.0791,-0.0694,-0.0564,-0.0383,-0.0302,-0.0223,-0.0185,-0.0182,-0.0181,-0.0185,-0.0201,-0.0135,-0.0199,-0.0198,-0.0197,-0.0197,-0.0196,0,-0.1613,-0.1547,-0.1454,-0.1339,-0.1262,-0.1164,-0.1059,-0.1023,-0.0851,-0.0785,-0.0681,-0.0608,-0.0462,-0.0356,-0.0228,-0.0142,-0.0049,-0.0027,-0.0026,-0.0069,-0.0126,-0.0101,0.0049,-0.0027,-0.0025,-0.0024,-0.0023,-0.0022,-0.1498,-0.1458,-0.1275,-0.1222,-0.1143,-0.1058,-0.0991,-0.0841,-0.0776,-0.0624,-0.0594,-0.0484,-0.0389,-0.0236,-0.0103,0.0007,0.0053,0.0013,0.007,0.0026,0.0046,0.004,0.0043,-0.0003,-0.0005,-0.0007,-0.0009,0,-0.1443,-0.1304,-0.1214,-0.1035,-0.0989,-0.0955,-0.0802,-0.0753,-0.0647,-0.0566,-0.0538,-0.0372,-0.0272,-0.0131,0.0013,0.0083,0.0138,0.0183,0.0092,0.0107,0.0082,0.008,-0.0012,-0.0018,0.0146,0.0145,0.0143,0,-0.1293,-0.1244,-0.1042,-0.0997,-0.0938,-0.0788,-0.0735,-0.0638,-0.0521,-0.0455,-0.0324,-0.0265,-0.0092,-0.0013,0.0091,0.0163,0.0192,0.0248,0.0274,0.0234,0.0225,0.0268,0.0273,0.0339,0.034,0.034,0.034,0,-0.1224,-0.1055,-0.098,-0.092,-0.0723,-0.0691,-0.0607,-0.0473,-0.0407,-0.0298,-0.0254,-0.0137,-0.0074,0.0014,0.0146,0.0178,0.0239,0.0311,0.0296,0.0292,0.0299,0.0296,0.0183,0.0341,0.0341,0.0341,0.0341,0,-0.1082,-0.0975,-0.0885,-0.0718,-0.068,-0.0629,-0.0505,-0.0428,-0.0296,-0.0227,-0.0139,-0.0035,0.0043,0.0103,0.0212,0.0216,0.027,0.0333,0.0335,0.0347,0.0409,0.032,0.0202,0.0193,0.0361,0.0361,0.0362,0,-0.1045,-0.0915,-0.0785,-0.0701,-0.0622,-0.0482,-0.0422,-0.0308,-0.021,-0.0129,-0.0019,0.0073,0.0149,0.0198,0.0234,0.0349,0.0344,0.0355,0.0466,0.0468,0.0421,0.0315,0.026,0.0213,0.0366,0.0366,0.0365,0,-0.0998,-0.0756,-0.0751,-0.0676,-0.0499,-0.043,-0.0361,-0.0236,-0.019,-0.0073,-0.0013,0.0125,0.0186,0.0266,0.0364,0.0394,0.0352,0.0456,0.0462,0.0428,0.0382,0.0328,0.032,0.0411,0.0411,0.0411,0.0369,0,-0.0825,-0.074,-0.0716,-0.0552,-0.0476,-0.0413,-0.0261,-0.0201,-0.0115,-0.0013,0.0082,0.0216,0.0345,0.0377,0.0463,0.0487,0.0504,0.057,0.0637,0.0568,0.0557,0.0553,0.0639,0.0642,0.0644,0.0646,0,0,-0.0826,-0.07,-0.0557,-0.0483,-0.0411,-0.0264,-0.0211,-0.0122,0.0053,0.01,0.0139,0.035,0.0458,0.0556,0.0547,0.0601,0.0618,0.0638,0.06,0.0594,0.059,0.0576,0.0569,0.0651,0.0652,0.0653,0.0653,0,-0.0732,-0.0625,-0.0573,-0.0475,-0.0324,-0.0217,-0.0205,-0.0029,0.0039,0.0135,0.0255,0.0331,0.0498,0.0595,0.0665,0.063,0.0716,0.0659,0.0587,0.062,0.0611,0.0603,0.0587,0.0579,0.0659,0.0659,0.0659,0,-0.0662,-0.0533,-0.0491,-0.0315,-0.0214,-0.0134,-0.0027,0.0055,0.0116,0.0275,0.0367,0.0463,0.0607,0.0682,0.0722,0.0759,0.0795,0.0814,0.0802,0.0809,0.0849,0.0838,0.0828,0.0956,0.0957,0.0957,0,0,-0.0602,-0.052,-0.0333,-0.0283,-0.0228,-0.0067,-0.0008,0.0085,0.0212,0.0262,0.0386,0.0506,0.0605,0.0666,0.0768,0.083,0.087,0.0844,0.083,0.0818,0.0817,0.0853,0.0843,0.0959,0.0959,0.0959,0,0,-0.0572,-0.0354,-0.0289,-0.0212,-0.0096,0.0092,0.0116,0.0201,0.0308,0.0317,0.048,0.0519,0.0593,0.0683,0.0684,0.0793,0.0857,0.086,0.0732,0.0716,0.0703,0.0678,0.0813,0,0,0,0,0,-0.0398,-0.0381,-0.0325,-0.0289,-0.0064,0.006,0.009,0.0223,0.0264,0.028,0.0398,0.0488,0.0716,0.0721,0.0755,0.0751,0.0978,0.0974,0.0971,0.0821,0.0803,0.0788,0,0,0,0,0,0,-0.0382,-0.0339,-0.0324,-0.0139,-0.0086,0.0061,0.0159,0.0196,0.0266,0.0281,0.0462,0.0493,0.061,0.0714,0.0742,0.0735,0.0804,0.0976,0.0973,0.0971,0.0815,0.08,0.0787,0,0,0,0,0,-0.037,-0.0335,-0.001,-0.0137,-0.0092,0.0089,0.016,0.0191,0.0248,0.0431,0.0465,0.0342,0.0606,0.0639,0.0731,0.0719,0.0786,0.0796,0.0974,0.0972,0.097,0.0807,0,0,0,0,0,0,-0.036,-0.0304,0.0003,0.0021,-0.0133,0.0084,0.0122,0.0186,0.0396,0.043,0.0319,0.0329,0.0604,0.063,0.0655,0.0705,0.0771,0.0781,0.0787,0.0973,0.0971,0.0969,0,0,0,0,0,0,-0.0322,-0.029,0.0012,0.001,0.003,0.0078,0.0112,0.0211,0.0397,0.0273,0.0288,0.0321,0.0567,0.0623,0.0643,0.0792,0.0759,0.0769,0.0776,0.078,0.0971,0.097,0,0,0,0,0,0,-0.0306,-0.0278,0.0006,0.0021,0.0039,0.0259,0.0168,0.039,0.0393,0.0262,0.0398,0.0399,0.0558,0.0581,0.0634,0.0774,0.0787,0.076,0.0766,0.0771,0.0774,0,0,0,0,0,0,0,-0.0293,-0.0513,-0.0109,0.003,0.0046,0.0194,0.0199,0.0204,0.0394,0.0395,0.0397,0.0399,0.0704,0.0715,0.0725,0.0759,0,0,0.0759,0.0763,0,0,0,0,0,0,0,0,-0.0522,-0.0515,-0.0108,-0.0104,-0.01,0.0195,0.0199,0.0203,0.0394,0.0395,0.0397,0.0398,0.0707,0.0715,0.0724,0,0,0,0,0,0,0,0,0,0,0,0,0,0,0,-0.0108,-0.0104,0,0.0195,0.0199,0.0202,0.0394,0.0395,0.0396,0.0398,0.0709,0.0716,0.0723,0,0,0,0,0,0,0,0,0,0,0,0,0,0,0,0,0,0,0,0,0,0,0,0,0,0,0,0,0,0,0,0,0,0,0,0,0,0,0,0,0,0,0,0,0,0,0,0,0,0,0,0,0,0,0,0,0,0,0,0,0,0,0,0,0,0,0,0,0]}],[{"header":{"parameterUnit":"kt","parameterCategory":2,"dx":1,"dy":1,"la1":30.253999710083008,"la2":30.299108505249023,"lo1":-89.0895004272461,"lo2":-89.04439544677734,"nx":28,"ny":28,"refTime":"2022-09-22T21:00:00:Z","depth":0,"parameterNumber":2,"parameterNumberName":"V-component_of_WINDS"},"data":[0.3718,0.3797,0.3793,0.3884,0.3897,0.396,0.3982,0.4012,0.4036,0.4114,0.416,0.417,0.4197,0.4255,0.4308,0.4312,0.4334,0.4361,0.4362,0.4235,0.4217,0.4201,0.4178,0.4367,0.4367,0.4492,0.4493,0.4494,0.3617,0.3629,0.3677,0.3721,0.3762,0.3732,0.3767,0.3805,0.3865,0.3896,0.3942,0.4014,0.4072,0.4092,0.4149,0.4191,0.4182,0.4206,0.4202,0.4207,0.4071,0.4048,0.4211,0.4211,0.4211,0.4211,0.4211,0.4211,0.3433,0.3482,0.3506,0.3558,0.3581,0.3613,0.3661,0.3669,0.372,0.3777,0.3769,0.3839,0.3874,0.3946,0.3973,0.4029,0.4004,0.4032,0.4038,0.4045,0.405,0.3862,0.404,0.404,0.404,0.4039,0.4039,0,0.3297,0.329,0.3337,0.3382,0.3421,0.3459,0.3493,0.3524,0.3517,0.3561,0.3624,0.3661,0.3737,0.3799,0.3856,0.3879,0.3857,0.3857,0.3876,0.3878,0.387,0.3872,0.3647,0.3853,0.3851,0.385,0.3849,0.3848,0.3108,0.3168,0.3195,0.3228,0.3246,0.3302,0.3336,0.3325,0.3363,0.3408,0.3455,0.3517,0.3566,0.3674,0.3692,0.3751,0.3742,0.3818,0.3751,0.3749,0.3739,0.3735,0.3739,0.3832,0.3834,0.3836,0.3837,0,0.3002,0.2998,0.3091,0.3114,0.3121,0.3186,0.3207,0.326,0.3265,0.3339,0.3356,0.3368,0.3434,0.3439,0.3519,0.352,0.3629,0.362,0.3614,0.3612,0.3679,0.3672,0.3904,0.3932,0.374,0.3742,0.3743,0,0.2839,0.292,0.2909,0.2964,0.3053,0.3039,0.313,0.3143,0.3173,0.3231,0.3205,0.3262,0.326,0.3318,0.3321,0.3412,0.3429,0.3434,0.3434,0.3435,0.3434,0.3457,0.3447,0.3434,0.3433,0.3432,0.3431,0,0.2671,0.2763,0.2851,0.2872,0.2907,0.295,0.2968,0.3002,0.3038,0.3086,0.3109,0.3169,0.3201,0.3248,0.325,0.3203,0.3363,0.33,0.3369,0.3369,0.3404,0.3402,0.3606,0.343,0.3429,0.3429,0.3429,0,0.2539,0.2582,0.2712,0.2739,0.2765,0.2826,0.2879,0.2932,0.2971,0.2975,0.3014,0.2999,0.3081,0.3016,0.3129,0.3067,0.3101,0.3115,0.312,0.3127,0.3054,0.3166,0.3361,0.338,0.3134,0.3131,0.3129,0,0.2346,0.2477,0.2465,0.2592,0.2652,0.2615,0.2684,0.2719,0.2729,0.2785,0.2799,0.2866,0.282,0.2842,0.2897,0.2915,0.2997,0.2905,0.299,0.2993,0.2975,0.3156,0.3182,0.3317,0.3098,0.3101,0.3104,0,0.2195,0.2235,0.2259,0.2281,0.2323,0.2376,0.2456,0.2517,0.2554,0.26,0.2666,0.2764,0.2731,0.277,0.2765,0.2823,0.2942,0.2782,0.2783,0.2808,0.3084,0.3107,0.313,0.2926,0.293,0.2933,0.3079,0,0.199,0.2058,0.2122,0.2175,0.2217,0.2299,0.2299,0.2344,0.2332,0.2341,0.2443,0.2479,0.2548,0.2578,0.2571,0.2701,0.268,0.2647,0.2585,0.2704,0.2752,0.2772,0.2512,0.251,0.2509,0.2508,0,0,0.1805,0.1901,0.1887,0.1962,0.1996,0.1957,0.2044,0.2075,0.214,0.2165,0.213,0.2272,0.2306,0.243,0.2467,0.2497,0.2521,0.2481,0.2648,0.2664,0.2678,0.2729,0.275,0.2505,0.2504,0.2504,0.2503,0,0.1729,0.1754,0.1838,0.1867,0.191,0.1915,0.1935,0.1973,0.1984,0.2084,0.2055,0.2118,0.2237,0.2272,0.2307,0.2465,0.2442,0.2487,0.2567,0.2633,0.265,0.2666,0.272,0.2739,0.25,0.25,0.25,0,0.1579,0.1603,0.1644,0.172,0.1749,0.1816,0.1748,0.1824,0.1875,0.1837,0.1938,0.196,0.2012,0.213,0.2184,0.2155,0.2369,0.2305,0.2315,0.2321,0.2385,0.2406,0.2425,0.2177,0.2176,0.2175,0,0,0.1514,0.1577,0.1602,0.1704,0.1723,0.1733,0.1771,0.1762,0.1805,0.1823,0.1851,0.1898,0.1965,0.2011,0.2076,0.2206,0.2216,0.2265,0.228,0.2293,0.2306,0.2373,0.2394,0.217,0.217,0.217,0,0,0.1485,0.1515,0.1494,0.1611,0.165,0.1686,0.175,0.1727,0.1784,0.1776,0.1772,0.1785,0.1896,0.1921,0.186,0.2054,0.1993,0.2008,0.2033,0.2053,0.2068,0.2059,0.1801,0,0,0,0,0,0.1407,0.151,0.149,0.151,0.161,0.1696,0.1709,0.1704,0.1658,0.1708,0.1728,0.1701,0.1886,0.1832,0.1855,0.1923,0.2113,0.2123,0.2132,0.2196,0.2216,0.2233,0,0,0,0,0,0,0.1415,0.1439,0.1488,0.1527,0.1549,0.1692,0.1613,0.1614,0.1652,0.1645,0.1698,0.1703,0.1705,0.182,0.1841,0.1906,0.1794,0.2117,0.2125,0.2133,0.2203,0.222,0.2234,0,0,0,0,0,0.1421,0.144,0.16,0.1526,0.1545,0.1563,0.1609,0.161,0.164,0.1671,0.1675,0.1632,0.1707,0.1724,0.1832,0.1897,0.1779,0.1787,0.2122,0.2129,0.2135,0.2211,0,0,0,0,0,0,0.1426,0.1444,0.1604,0.161,0.1486,0.1555,0.1565,0.1606,0.1663,0.1668,0.1605,0.1598,0.1709,0.1722,0.1736,0.1893,0.1768,0.1776,0.178,0.2127,0.2133,0.2138,0,0,0,0,0,0,0.1433,0.1449,0.1607,0.1557,0.1557,0.1548,0.1557,0.1651,0.1665,0.1594,0.159,0.1601,0.1691,0.1722,0.1732,0.1879,0.1759,0.1766,0.1771,0.1775,0.2132,0.2136,0,0,0,0,0,0,0.144,0.1454,0.1556,0.1556,0.1556,0.1622,0.1631,0.1735,0.1615,0.1592,0.1605,0.16,0.1692,0.1702,0.173,0.1872,0.1877,0.1759,0.1764,0.1768,0.177,0,0,0,0,0,0,0,0.1445,0.1355,0.1568,0.1555,0.1554,0.1665,0.1667,0.1668,0.1614,0.161,0.1606,0.1602,0.1716,0.1724,0.1732,0.1867,0,0,0.1758,0.1762,0,0,0,0,0,0,0,0,0.1349,0.1353,0.1569,0.157,0.1571,0.1665,0.1667,0.1668,0.1613,0.161,0.1607,0.1604,0.1718,0.1725,0.1732,0,0,0,0,0,0,0,0,0,0,0,0,0,0,0,0.1569,0.157,0,0.1665,0.1666,0.1668,0.1613,0.161,0.1607,0.1605,0.172,0.1725,0.1731,0,0,0,0,0,0,0,0,0,0,0,0,0,0,0,0,0,0,0,0,0,0,0,0,0,0,0,0,0,0,0,0,0,0,0,0,0,0,0,0,0,0,0,0,0,0,0,0,0,0,0,0,0,0,0,0,0,0,0,0,0,0,0,0,0,0,0,0,0]}]]]